Index of /20260414/WXO-DD/model_rdps/10km/12/020
Name Last modified Size Description
Parent Directory -
20260414T12Z_MSC_RDPS_AbsoluteVorticity_IsbL-0250_RLatLon0.09_PT020H.grib2 2026-04-14 14:46 606K
20260414T12Z_MSC_RDPS_AbsoluteVorticity_IsbL-0500_RLatLon0.09_PT020H.grib2 2026-04-14 14:46 558K
20260414T12Z_MSC_RDPS_AbsoluteVorticity_IsbL-0700_RLatLon0.09_PT020H.grib2 2026-04-14 14:46 619K
20260414T12Z_MSC_RDPS_AbsoluteVorticity_IsbL-0850_RLatLon0.09_PT020H.grib2 2026-04-14 14:46 780K
20260414T12Z_MSC_RDPS_AirTemp_AGL-120m_RLatLon0.09_PT020H.grib2 2026-04-14 14:46 380K
20260414T12Z_MSC_RDPS_AirTemp_AGL-2m_RLatLon0.09_PT020H.grib2 2026-04-14 14:46 642K
20260414T12Z_MSC_RDPS_AirTemp_AGL-40m_RLatLon0.09_PT020H.grib2 2026-04-14 14:46 397K
20260414T12Z_MSC_RDPS_AirTemp_AGL-80m_RLatLon0.09_PT020H.grib2 2026-04-14 14:46 388K
20260414T12Z_MSC_RDPS_AirTemp_IsbL-0001_RLatLon0.09_PT020H.grib2 2026-04-14 14:46 295K
20260414T12Z_MSC_RDPS_AirTemp_IsbL-0005_RLatLon0.09_PT020H.grib2 2026-04-14 14:46 252K
20260414T12Z_MSC_RDPS_AirTemp_IsbL-0010_RLatLon0.09_PT020H.grib2 2026-04-14 14:46 339K
20260414T12Z_MSC_RDPS_AirTemp_IsbL-0020_RLatLon0.09_PT020H.grib2 2026-04-14 14:46 354K
20260414T12Z_MSC_RDPS_AirTemp_IsbL-0030_RLatLon0.09_PT020H.grib2 2026-04-14 14:46 377K
20260414T12Z_MSC_RDPS_AirTemp_IsbL-0050_RLatLon0.09_PT020H.grib2 2026-04-14 14:46 328K
20260414T12Z_MSC_RDPS_AirTemp_IsbL-0100_RLatLon0.09_PT020H.grib2 2026-04-14 14:46 393K
20260414T12Z_MSC_RDPS_AirTemp_IsbL-0150_RLatLon0.09_PT020H.grib2 2026-04-14 14:46 434K
20260414T12Z_MSC_RDPS_AirTemp_IsbL-0175_RLatLon0.09_PT020H.grib2 2026-04-14 14:46 404K
20260414T12Z_MSC_RDPS_AirTemp_IsbL-0200_RLatLon0.09_PT020H.grib2 2026-04-14 14:46 409K
20260414T12Z_MSC_RDPS_AirTemp_IsbL-0225_RLatLon0.09_PT020H.grib2 2026-04-14 14:46 411K
20260414T12Z_MSC_RDPS_AirTemp_IsbL-0250_RLatLon0.09_PT020H.grib2 2026-04-14 14:46 421K
20260414T12Z_MSC_RDPS_AirTemp_IsbL-0275_RLatLon0.09_PT020H.grib2 2026-04-14 14:46 406K
20260414T12Z_MSC_RDPS_AirTemp_IsbL-0300_RLatLon0.09_PT020H.grib2 2026-04-14 14:46 438K
20260414T12Z_MSC_RDPS_AirTemp_IsbL-0350_RLatLon0.09_PT020H.grib2 2026-04-14 14:46 424K
20260414T12Z_MSC_RDPS_AirTemp_IsbL-0400_RLatLon0.09_PT020H.grib2 2026-04-14 14:46 424K
20260414T12Z_MSC_RDPS_AirTemp_IsbL-0450_RLatLon0.09_PT020H.grib2 2026-04-14 14:46 398K
20260414T12Z_MSC_RDPS_AirTemp_IsbL-0500_RLatLon0.09_PT020H.grib2 2026-04-14 14:46 409K
20260414T12Z_MSC_RDPS_AirTemp_IsbL-0550_RLatLon0.09_PT020H.grib2 2026-04-14 14:46 428K
20260414T12Z_MSC_RDPS_AirTemp_IsbL-0600_RLatLon0.09_PT020H.grib2 2026-04-14 14:46 444K
20260414T12Z_MSC_RDPS_AirTemp_IsbL-0650_RLatLon0.09_PT020H.grib2 2026-04-14 14:46 355K
20260414T12Z_MSC_RDPS_AirTemp_IsbL-0700_RLatLon0.09_PT020H.grib2 2026-04-14 14:46 375K
20260414T12Z_MSC_RDPS_AirTemp_IsbL-0750_RLatLon0.09_PT020H.grib2 2026-04-14 14:46 410K
20260414T12Z_MSC_RDPS_AirTemp_IsbL-0800_RLatLon0.09_PT020H.grib2 2026-04-14 14:46 458K
20260414T12Z_MSC_RDPS_AirTemp_IsbL-0850_RLatLon0.09_PT020H.grib2 2026-04-14 14:46 500K
20260414T12Z_MSC_RDPS_AirTemp_IsbL-0875_RLatLon0.09_PT020H.grib2 2026-04-14 14:46 510K
20260414T12Z_MSC_RDPS_AirTemp_IsbL-0900_RLatLon0.09_PT020H.grib2 2026-04-14 14:46 515K
20260414T12Z_MSC_RDPS_AirTemp_IsbL-0925_RLatLon0.09_PT020H.grib2 2026-04-14 14:46 515K
20260414T12Z_MSC_RDPS_AirTemp_IsbL-0950_RLatLon0.09_PT020H.grib2 2026-04-14 14:46 518K
20260414T12Z_MSC_RDPS_AirTemp_IsbL-0970_RLatLon0.09_PT020H.grib2 2026-04-14 14:46 519K
20260414T12Z_MSC_RDPS_AirTemp_IsbL-0985_RLatLon0.09_PT020H.grib2 2026-04-14 14:46 519K
20260414T12Z_MSC_RDPS_AirTemp_IsbL-1000_RLatLon0.09_PT020H.grib2 2026-04-14 14:46 505K
20260414T12Z_MSC_RDPS_AirTemp_IsbL-1015_RLatLon0.09_PT020H.grib2 2026-04-14 14:46 505K
20260414T12Z_MSC_RDPS_Albedo_Sfc_RLatLon0.09_PT020H.grib2 2026-04-14 14:46 167K
20260414T12Z_MSC_RDPS_CAPE_Sfc_RLatLon0.09_PT020H.grib2 2026-04-14 14:46 1.5M
20260414T12Z_MSC_RDPS_CIN_Sfc_RLatLon0.09_PT020H.grib2 2026-04-14 14:46 1.1M
20260414T12Z_MSC_RDPS_CloudWater_EAtm_RLatLon0.09_PT020H.grib2 2026-04-14 14:46 208K
20260414T12Z_MSC_RDPS_ConvectivePrecip-Accum_Sfc_RLatLon0.09_PT020H.grib2 2026-04-14 14:46 797K
20260414T12Z_MSC_RDPS_DewPointDepression_AGL-2m_RLatLon0.09_PT020H.grib2 2026-04-14 14:46 383K
20260414T12Z_MSC_RDPS_DewPointDepression_IsbL-0001_RLatLon0.09_PT020H.grib2 2026-04-14 14:46 193
20260414T12Z_MSC_RDPS_DewPointDepression_IsbL-0005_RLatLon0.09_PT020H.grib2 2026-04-14 14:46 193
20260414T12Z_MSC_RDPS_DewPointDepression_IsbL-0010_RLatLon0.09_PT020H.grib2 2026-04-14 14:46 193
20260414T12Z_MSC_RDPS_DewPointDepression_IsbL-0020_RLatLon0.09_PT020H.grib2 2026-04-14 14:46 193
20260414T12Z_MSC_RDPS_DewPointDepression_IsbL-0030_RLatLon0.09_PT020H.grib2 2026-04-14 14:46 22K
20260414T12Z_MSC_RDPS_DewPointDepression_IsbL-0050_RLatLon0.09_PT020H.grib2 2026-04-14 14:46 107K
20260414T12Z_MSC_RDPS_DewPointDepression_IsbL-0100_RLatLon0.09_PT020H.grib2 2026-04-14 14:46 128K
20260414T12Z_MSC_RDPS_DewPointDepression_IsbL-0150_RLatLon0.09_PT020H.grib2 2026-04-14 14:46 142K
20260414T12Z_MSC_RDPS_DewPointDepression_IsbL-0175_RLatLon0.09_PT020H.grib2 2026-04-14 14:46 168K
20260414T12Z_MSC_RDPS_DewPointDepression_IsbL-0200_RLatLon0.09_PT020H.grib2 2026-04-14 14:46 202K
20260414T12Z_MSC_RDPS_DewPointDepression_IsbL-0225_RLatLon0.09_PT020H.grib2 2026-04-14 14:46 243K
20260414T12Z_MSC_RDPS_DewPointDepression_IsbL-0250_RLatLon0.09_PT020H.grib2 2026-04-14 14:46 287K
20260414T12Z_MSC_RDPS_DewPointDepression_IsbL-0275_RLatLon0.09_PT020H.grib2 2026-04-14 14:46 301K
20260414T12Z_MSC_RDPS_DewPointDepression_IsbL-0300_RLatLon0.09_PT020H.grib2 2026-04-14 14:46 321K
20260414T12Z_MSC_RDPS_DewPointDepression_IsbL-0350_RLatLon0.09_PT020H.grib2 2026-04-14 14:46 328K
20260414T12Z_MSC_RDPS_DewPointDepression_IsbL-0400_RLatLon0.09_PT020H.grib2 2026-04-14 14:46 343K
20260414T12Z_MSC_RDPS_DewPointDepression_IsbL-0450_RLatLon0.09_PT020H.grib2 2026-04-14 14:46 346K
20260414T12Z_MSC_RDPS_DewPointDepression_IsbL-0500_RLatLon0.09_PT020H.grib2 2026-04-14 14:46 350K
20260414T12Z_MSC_RDPS_DewPointDepression_IsbL-0550_RLatLon0.09_PT020H.grib2 2026-04-14 14:46 362K
20260414T12Z_MSC_RDPS_DewPointDepression_IsbL-0600_RLatLon0.09_PT020H.grib2 2026-04-14 14:46 369K
20260414T12Z_MSC_RDPS_DewPointDepression_IsbL-0650_RLatLon0.09_PT020H.grib2 2026-04-14 14:46 375K
20260414T12Z_MSC_RDPS_DewPointDepression_IsbL-0700_RLatLon0.09_PT020H.grib2 2026-04-14 14:46 386K
20260414T12Z_MSC_RDPS_DewPointDepression_IsbL-0750_RLatLon0.09_PT020H.grib2 2026-04-14 14:46 402K
20260414T12Z_MSC_RDPS_DewPointDepression_IsbL-0800_RLatLon0.09_PT020H.grib2 2026-04-14 14:46 431K
20260414T12Z_MSC_RDPS_DewPointDepression_IsbL-0850_RLatLon0.09_PT020H.grib2 2026-04-14 14:46 460K
20260414T12Z_MSC_RDPS_DewPointDepression_IsbL-0875_RLatLon0.09_PT020H.grib2 2026-04-14 14:46 456K
20260414T12Z_MSC_RDPS_DewPointDepression_IsbL-0900_RLatLon0.09_PT020H.grib2 2026-04-14 14:46 450K
20260414T12Z_MSC_RDPS_DewPointDepression_IsbL-0925_RLatLon0.09_PT020H.grib2 2026-04-14 14:46 437K
20260414T12Z_MSC_RDPS_DewPointDepression_IsbL-0950_RLatLon0.09_PT020H.grib2 2026-04-14 14:46 429K
20260414T12Z_MSC_RDPS_DewPointDepression_IsbL-0970_RLatLon0.09_PT020H.grib2 2026-04-14 14:46 426K
20260414T12Z_MSC_RDPS_DewPointDepression_IsbL-0985_RLatLon0.09_PT020H.grib2 2026-04-14 14:46 422K
20260414T12Z_MSC_RDPS_DewPointDepression_IsbL-1000_RLatLon0.09_PT020H.grib2 2026-04-14 14:46 418K
20260414T12Z_MSC_RDPS_DewPointDepression_IsbL-1015_RLatLon0.09_PT020H.grib2 2026-04-14 14:46 410K
20260414T12Z_MSC_RDPS_DewPoint_AGL-2m_RLatLon0.09_PT020H.grib2 2026-04-14 14:46 307K
20260414T12Z_MSC_RDPS_DownwardLongwaveRadiationFlux-Accum_Sfc_RLatLon0.09_PT020H.grib2 2026-04-14 14:46 404K
20260414T12Z_MSC_RDPS_DownwardShortwaveRadiationFlux-Accum_NTAtm_RLatLon0.09_PT020H.grib2 2026-04-14 14:46 104K
20260414T12Z_MSC_RDPS_DownwardShortwaveRadiationFlux-Accum_Sfc_RLatLon0.09_PT020H.grib2 2026-04-14 14:46 590K
20260414T12Z_MSC_RDPS_FreezingRain-Accum1h_Sfc_RLatLon0.09_PT020H.grib2 2026-04-14 14:46 39K
20260414T12Z_MSC_RDPS_FreezingRain-Accum_Sfc_RLatLon0.09_PT020H.grib2 2026-04-14 14:46 84K
20260414T12Z_MSC_RDPS_GeopotentialHeight_IsbL-0001_RLatLon0.09_PT020H.grib2 2026-04-14 14:46 211K
20260414T12Z_MSC_RDPS_GeopotentialHeight_IsbL-0005_RLatLon0.09_PT020H.grib2 2026-04-14 14:46 270K
20260414T12Z_MSC_RDPS_GeopotentialHeight_IsbL-0010_RLatLon0.09_PT020H.grib2 2026-04-14 14:46 312K
20260414T12Z_MSC_RDPS_GeopotentialHeight_IsbL-0020_RLatLon0.09_PT020H.grib2 2026-04-14 14:46 310K
20260414T12Z_MSC_RDPS_GeopotentialHeight_IsbL-0030_RLatLon0.09_PT020H.grib2 2026-04-14 14:46 311K
20260414T12Z_MSC_RDPS_GeopotentialHeight_IsbL-0050_RLatLon0.09_PT020H.grib2 2026-04-14 14:46 241K
20260414T12Z_MSC_RDPS_GeopotentialHeight_IsbL-0100_RLatLon0.09_PT020H.grib2 2026-04-14 14:46 223K
20260414T12Z_MSC_RDPS_GeopotentialHeight_IsbL-0150_RLatLon0.09_PT020H.grib2 2026-04-14 14:46 265K
20260414T12Z_MSC_RDPS_GeopotentialHeight_IsbL-0175_RLatLon0.09_PT020H.grib2 2026-04-14 14:46 265K
20260414T12Z_MSC_RDPS_GeopotentialHeight_IsbL-0200_RLatLon0.09_PT020H.grib2 2026-04-14 14:46 266K
20260414T12Z_MSC_RDPS_GeopotentialHeight_IsbL-0225_RLatLon0.09_PT020H.grib2 2026-04-14 14:46 266K
20260414T12Z_MSC_RDPS_GeopotentialHeight_IsbL-0250_RLatLon0.09_PT020H.grib2 2026-04-14 14:46 267K
20260414T12Z_MSC_RDPS_GeopotentialHeight_IsbL-0275_RLatLon0.09_PT020H.grib2 2026-04-14 14:46 266K
20260414T12Z_MSC_RDPS_GeopotentialHeight_IsbL-0300_RLatLon0.09_PT020H.grib2 2026-04-14 14:46 266K
20260414T12Z_MSC_RDPS_GeopotentialHeight_IsbL-0350_RLatLon0.09_PT020H.grib2 2026-04-14 14:46 263K
20260414T12Z_MSC_RDPS_GeopotentialHeight_IsbL-0400_RLatLon0.09_PT020H.grib2 2026-04-14 14:46 259K
20260414T12Z_MSC_RDPS_GeopotentialHeight_IsbL-0450_RLatLon0.09_PT020H.grib2 2026-04-14 14:46 224K
20260414T12Z_MSC_RDPS_GeopotentialHeight_IsbL-0500_RLatLon0.09_PT020H.grib2 2026-04-14 14:46 219K
20260414T12Z_MSC_RDPS_GeopotentialHeight_IsbL-0550_RLatLon0.09_PT020H.grib2 2026-04-14 14:46 287K
20260414T12Z_MSC_RDPS_GeopotentialHeight_IsbL-0600_RLatLon0.09_PT020H.grib2 2026-04-14 14:46 284K
20260414T12Z_MSC_RDPS_GeopotentialHeight_IsbL-0650_RLatLon0.09_PT020H.grib2 2026-04-14 14:46 282K
20260414T12Z_MSC_RDPS_GeopotentialHeight_IsbL-0700_RLatLon0.09_PT020H.grib2 2026-04-14 14:46 280K
20260414T12Z_MSC_RDPS_GeopotentialHeight_IsbL-0750_RLatLon0.09_PT020H.grib2 2026-04-14 14:46 254K
20260414T12Z_MSC_RDPS_GeopotentialHeight_IsbL-0800_RLatLon0.09_PT020H.grib2 2026-04-14 14:46 346K
20260414T12Z_MSC_RDPS_GeopotentialHeight_IsbL-0850_RLatLon0.09_PT020H.grib2 2026-04-14 14:46 356K
20260414T12Z_MSC_RDPS_GeopotentialHeight_IsbL-0875_RLatLon0.09_PT020H.grib2 2026-04-14 14:46 356K
20260414T12Z_MSC_RDPS_GeopotentialHeight_IsbL-0900_RLatLon0.09_PT020H.grib2 2026-04-14 14:46 394K
20260414T12Z_MSC_RDPS_GeopotentialHeight_IsbL-0925_RLatLon0.09_PT020H.grib2 2026-04-14 14:46 399K
20260414T12Z_MSC_RDPS_GeopotentialHeight_IsbL-0950_RLatLon0.09_PT020H.grib2 2026-04-14 14:46 401K
20260414T12Z_MSC_RDPS_GeopotentialHeight_IsbL-0970_RLatLon0.09_PT020H.grib2 2026-04-14 14:46 373K
20260414T12Z_MSC_RDPS_GeopotentialHeight_IsbL-0985_RLatLon0.09_PT020H.grib2 2026-04-14 14:46 381K
20260414T12Z_MSC_RDPS_GeopotentialHeight_IsbL-1000_RLatLon0.09_PT020H.grib2 2026-04-14 14:46 393K
20260414T12Z_MSC_RDPS_GeopotentialHeight_IsbL-1015_RLatLon0.09_PT020H.grib2 2026-04-14 14:46 407K
20260414T12Z_MSC_RDPS_Humidex_Sfc_RLatLon0.09_PT020H.grib2 2026-04-14 14:46 2.4M
20260414T12Z_MSC_RDPS_IcePellets-Accum1h_Sfc_RLatLon0.09_PT020H.grib2 2026-04-14 14:46 5.4K
20260414T12Z_MSC_RDPS_IcePellets-Accum_Sfc_RLatLon0.09_PT020H.grib2 2026-04-14 14:46 13K
20260414T12Z_MSC_RDPS_KIndex_Sfc_RLatLon0.09_PT020H.grib2 2026-04-14 14:46 2.5M
20260414T12Z_MSC_RDPS_LatentHeatNetFlux_Sfc_RLatLon0.09_PT020H.grib2 2026-04-14 14:46 300K
20260414T12Z_MSC_RDPS_LiftedIndex-MU-VT_IsbL-0500_RLatLon0.09_PT020H.grib2 2026-04-14 14:46 2.4M
20260414T12Z_MSC_RDPS_NetLongwaveRadiationFlux-Accum_Sfc_RLatLon0.09_PT020H.grib2 2026-04-14 14:46 542K
20260414T12Z_MSC_RDPS_NetShortwaveRadiationFlux-Accum_Sfc_RLatLon0.09_PT020H.grib2 2026-04-14 14:46 595K
20260414T12Z_MSC_RDPS_PlanetaryBoundaryLayerHeight_Sfc_RLatLon0.09_PT020H.grib2 2026-04-14 14:46 1.1M
20260414T12Z_MSC_RDPS_Precip-Accum1h_Sfc_RLatLon0.09_PT020H.grib2 2026-04-14 14:46 1.2M
20260414T12Z_MSC_RDPS_Precip-Accum_Sfc_RLatLon0.09_PT020H.grib2 2026-04-14 14:46 1.7M
20260414T12Z_MSC_RDPS_PrecipRate_Sfc_RLatLon0.09_PT020H.grib2 2026-04-14 14:46 192K
20260414T12Z_MSC_RDPS_PrecipType-Instant_Sfc_RLatLon0.09_PT020H.grib2 2026-04-14 14:46 588K
20260414T12Z_MSC_RDPS_Pressure-Trend3h_Sfc_RLatLon0.09_PT020H.grib2 2026-04-14 14:46 1.2M
20260414T12Z_MSC_RDPS_Pressure_MSL_RLatLon0.09_PT020H.grib2 2026-04-14 14:46 327K
20260414T12Z_MSC_RDPS_Pressure_PVU-1.5_RLatLon0.09_PT020H.grib2 2026-04-14 14:46 2.5M
20260414T12Z_MSC_RDPS_Pressure_PVU-1_RLatLon0.09_PT020H.grib2 2026-04-14 14:46 2.4M
20260414T12Z_MSC_RDPS_Pressure_PVU-2_RLatLon0.09_PT020H.grib2 2026-04-14 14:46 2.4M
20260414T12Z_MSC_RDPS_Pressure_Sfc_RLatLon0.09_PT020H.grib2 2026-04-14 14:46 501K
20260414T12Z_MSC_RDPS_RadiativeTemp_Sfc_RLatLon0.09_PT020H.grib2 2026-04-14 14:46 308K
20260414T12Z_MSC_RDPS_Rain-Accum1h_Sfc_RLatLon0.09_PT020H.grib2 2026-04-14 14:46 627K
20260414T12Z_MSC_RDPS_Rain-Accum_Sfc_RLatLon0.09_PT020H.grib2 2026-04-14 14:46 1.3M
20260414T12Z_MSC_RDPS_RelativeHumidity_AGL-2m_RLatLon0.09_PT020H.grib2 2026-04-14 14:46 1.0M
20260414T12Z_MSC_RDPS_RelativeHumidity_IsbL-0010_RLatLon0.09_PT020H.grib2 2026-04-14 14:46 429K
20260414T12Z_MSC_RDPS_RelativeHumidity_IsbL-0020_RLatLon0.09_PT020H.grib2 2026-04-14 14:46 403K
20260414T12Z_MSC_RDPS_RelativeHumidity_IsbL-0030_RLatLon0.09_PT020H.grib2 2026-04-14 14:46 368K
20260414T12Z_MSC_RDPS_RelativeHumidity_IsbL-0050_RLatLon0.09_PT020H.grib2 2026-04-14 14:46 392K
20260414T12Z_MSC_RDPS_RelativeHumidity_IsbL-0100_RLatLon0.09_PT020H.grib2 2026-04-14 14:46 270K
20260414T12Z_MSC_RDPS_RelativeHumidity_IsbL-0150_RLatLon0.09_PT020H.grib2 2026-04-14 14:46 386K
20260414T12Z_MSC_RDPS_RelativeHumidity_IsbL-0175_RLatLon0.09_PT020H.grib2 2026-04-14 14:46 454K
20260414T12Z_MSC_RDPS_RelativeHumidity_IsbL-0200_RLatLon0.09_PT020H.grib2 2026-04-14 14:46 521K
20260414T12Z_MSC_RDPS_RelativeHumidity_IsbL-0225_RLatLon0.09_PT020H.grib2 2026-04-14 14:46 590K
20260414T12Z_MSC_RDPS_RelativeHumidity_IsbL-0250_RLatLon0.09_PT020H.grib2 2026-04-14 14:46 666K
20260414T12Z_MSC_RDPS_RelativeHumidity_IsbL-0275_RLatLon0.09_PT020H.grib2 2026-04-14 14:46 699K
20260414T12Z_MSC_RDPS_RelativeHumidity_IsbL-0300_RLatLon0.09_PT020H.grib2 2026-04-14 14:46 748K
20260414T12Z_MSC_RDPS_RelativeHumidity_IsbL-0350_RLatLon0.09_PT020H.grib2 2026-04-14 14:46 776K
20260414T12Z_MSC_RDPS_RelativeHumidity_IsbL-0400_RLatLon0.09_PT020H.grib2 2026-04-14 14:46 792K
20260414T12Z_MSC_RDPS_RelativeHumidity_IsbL-0450_RLatLon0.09_PT020H.grib2 2026-04-14 14:46 797K
20260414T12Z_MSC_RDPS_RelativeHumidity_IsbL-0500_RLatLon0.09_PT020H.grib2 2026-04-14 14:46 802K
20260414T12Z_MSC_RDPS_RelativeHumidity_IsbL-0550_RLatLon0.09_PT020H.grib2 2026-04-14 14:46 834K
20260414T12Z_MSC_RDPS_RelativeHumidity_IsbL-0600_RLatLon0.09_PT020H.grib2 2026-04-14 14:46 839K
20260414T12Z_MSC_RDPS_RelativeHumidity_IsbL-0650_RLatLon0.09_PT020H.grib2 2026-04-14 14:46 852K
20260414T12Z_MSC_RDPS_RelativeHumidity_IsbL-0700_RLatLon0.09_PT020H.grib2 2026-04-14 14:46 884K
20260414T12Z_MSC_RDPS_RelativeHumidity_IsbL-0750_RLatLon0.09_PT020H.grib2 2026-04-14 14:46 922K
20260414T12Z_MSC_RDPS_RelativeHumidity_IsbL-0800_RLatLon0.09_PT020H.grib2 2026-04-14 14:46 1.0M
20260414T12Z_MSC_RDPS_RelativeHumidity_IsbL-0850_RLatLon0.09_PT020H.grib2 2026-04-14 14:46 1.0M
20260414T12Z_MSC_RDPS_RelativeHumidity_IsbL-0875_RLatLon0.09_PT020H.grib2 2026-04-14 14:46 1.0M
20260414T12Z_MSC_RDPS_RelativeHumidity_IsbL-0900_RLatLon0.09_PT020H.grib2 2026-04-14 14:46 1.0M
20260414T12Z_MSC_RDPS_RelativeHumidity_IsbL-0925_RLatLon0.09_PT020H.grib2 2026-04-14 14:46 1.0M
20260414T12Z_MSC_RDPS_RelativeHumidity_IsbL-0950_RLatLon0.09_PT020H.grib2 2026-04-14 14:46 1.0M
20260414T12Z_MSC_RDPS_RelativeHumidity_IsbL-0970_RLatLon0.09_PT020H.grib2 2026-04-14 14:46 1.0M
20260414T12Z_MSC_RDPS_RelativeHumidity_IsbL-0985_RLatLon0.09_PT020H.grib2 2026-04-14 14:46 1.0M
20260414T12Z_MSC_RDPS_RelativeHumidity_IsbL-1000_RLatLon0.09_PT020H.grib2 2026-04-14 14:46 1.0M
20260414T12Z_MSC_RDPS_RelativeHumidity_IsbL-1015_RLatLon0.09_PT020H.grib2 2026-04-14 14:46 1.0M
20260414T12Z_MSC_RDPS_Runoff-Accum_Sfc_RLatLon0.09_PT020H.grib2 2026-04-14 14:46 37K
20260414T12Z_MSC_RDPS_SWEATIndex_Sfc_RLatLon0.09_PT020H.grib2 2026-04-14 14:46 2.4M
20260414T12Z_MSC_RDPS_SeeingIndex_EAtm_RLatLon0.09_PT020H.grib2 2026-04-14 14:46 1.1M
20260414T12Z_MSC_RDPS_SensibleHeatNetFlux_Sfc_RLatLon0.09_PT020H.grib2 2026-04-14 14:46 293K
20260414T12Z_MSC_RDPS_ShowalterIndex_IsbL-0500_RLatLon0.09_PT020H.grib2 2026-04-14 14:46 2.6M
20260414T12Z_MSC_RDPS_SkyTransparencyIndex_EAtm_RLatLon0.09_PT020H.grib2 2026-04-14 14:46 707K
20260414T12Z_MSC_RDPS_Snow-Accum1h_Sfc_RLatLon0.09_PT020H.grib2 2026-04-14 14:46 436K
20260414T12Z_MSC_RDPS_Snow-Accum_Sfc_RLatLon0.09_PT020H.grib2 2026-04-14 14:46 677K
20260414T12Z_MSC_RDPS_SnowDensity_Sfc_RLatLon0.09_PT020H.grib2 2026-04-14 14:46 174K
20260414T12Z_MSC_RDPS_SnowDepth_Sfc_RLatLon0.09_PT020H.grib2 2026-04-14 14:46 724K
20260414T12Z_MSC_RDPS_SoilTemp_DBS-0to10cm_RLatLon0.09_PT020H.grib2 2026-04-14 14:46 218K
20260414T12Z_MSC_RDPS_SoilTemp_Sfc_RLatLon0.09_PT020H.grib2 2026-04-14 14:46 266K
20260414T12Z_MSC_RDPS_SoilVolumetricIceContent_Sfc_RLatLon0.09_PT020H.grib2 2026-04-14 14:46 176K
20260414T12Z_MSC_RDPS_SoilVolumetricWaterContent_DBS-0to10cm_RLatLon0.09_PT020H.grib2 2026-04-14 14:46 243K
20260414T12Z_MSC_RDPS_SoilVolumetricWaterContent_DBS-0to1cm_RLatLon0.09_PT020H.grib2 2026-04-14 14:46 335K
20260414T12Z_MSC_RDPS_SpecificHumidity_AGL-120m_RLatLon0.09_PT020H.grib2 2026-04-14 14:46 469K
20260414T12Z_MSC_RDPS_SpecificHumidity_AGL-2m_RLatLon0.09_PT020H.grib2 2026-04-14 14:46 628K
20260414T12Z_MSC_RDPS_SpecificHumidity_AGL-40m_RLatLon0.09_PT020H.grib2 2026-04-14 14:46 473K
20260414T12Z_MSC_RDPS_SpecificHumidity_AGL-80m_RLatLon0.09_PT020H.grib2 2026-04-14 14:46 470K
20260414T12Z_MSC_RDPS_SpecificHumidity_IsbL-0001_RLatLon0.09_PT020H.grib2 2026-04-14 14:46 297K
20260414T12Z_MSC_RDPS_SpecificHumidity_IsbL-0005_RLatLon0.09_PT020H.grib2 2026-04-14 14:46 348K
20260414T12Z_MSC_RDPS_SpecificHumidity_IsbL-0010_RLatLon0.09_PT020H.grib2 2026-04-14 14:46 369K
20260414T12Z_MSC_RDPS_SpecificHumidity_IsbL-0020_RLatLon0.09_PT020H.grib2 2026-04-14 14:46 380K
20260414T12Z_MSC_RDPS_SpecificHumidity_IsbL-0030_RLatLon0.09_PT020H.grib2 2026-04-14 14:46 478K
20260414T12Z_MSC_RDPS_SpecificHumidity_IsbL-0050_RLatLon0.09_PT020H.grib2 2026-04-14 14:46 505K
20260414T12Z_MSC_RDPS_SpecificHumidity_IsbL-0100_RLatLon0.09_PT020H.grib2 2026-04-14 14:46 399K
20260414T12Z_MSC_RDPS_SpecificHumidity_IsbL-0150_RLatLon0.09_PT020H.grib2 2026-04-14 14:46 463K
20260414T12Z_MSC_RDPS_SpecificHumidity_IsbL-0175_RLatLon0.09_PT020H.grib2 2026-04-14 14:46 513K
20260414T12Z_MSC_RDPS_SpecificHumidity_IsbL-0200_RLatLon0.09_PT020H.grib2 2026-04-14 14:46 422K
20260414T12Z_MSC_RDPS_SpecificHumidity_IsbL-0225_RLatLon0.09_PT020H.grib2 2026-04-14 14:46 532K
20260414T12Z_MSC_RDPS_SpecificHumidity_IsbL-0250_RLatLon0.09_PT020H.grib2 2026-04-14 14:46 537K
20260414T12Z_MSC_RDPS_SpecificHumidity_IsbL-0275_RLatLon0.09_PT020H.grib2 2026-04-14 14:46 456K
20260414T12Z_MSC_RDPS_SpecificHumidity_IsbL-0300_RLatLon0.09_PT020H.grib2 2026-04-14 14:46 528K
20260414T12Z_MSC_RDPS_SpecificHumidity_IsbL-0350_RLatLon0.09_PT020H.grib2 2026-04-14 14:46 527K
20260414T12Z_MSC_RDPS_SpecificHumidity_IsbL-0400_RLatLon0.09_PT020H.grib2 2026-04-14 14:46 511K
20260414T12Z_MSC_RDPS_SpecificHumidity_IsbL-0450_RLatLon0.09_PT020H.grib2 2026-04-14 14:46 563K
20260414T12Z_MSC_RDPS_SpecificHumidity_IsbL-0500_RLatLon0.09_PT020H.grib2 2026-04-14 14:46 498K
20260414T12Z_MSC_RDPS_SpecificHumidity_IsbL-0550_RLatLon0.09_PT020H.grib2 2026-04-14 14:46 554K
20260414T12Z_MSC_RDPS_SpecificHumidity_IsbL-0600_RLatLon0.09_PT020H.grib2 2026-04-14 14:46 619K
20260414T12Z_MSC_RDPS_SpecificHumidity_IsbL-0650_RLatLon0.09_PT020H.grib2 2026-04-14 14:46 658K
20260414T12Z_MSC_RDPS_SpecificHumidity_IsbL-0700_RLatLon0.09_PT020H.grib2 2026-04-14 14:46 576K
20260414T12Z_MSC_RDPS_SpecificHumidity_IsbL-0750_RLatLon0.09_PT020H.grib2 2026-04-14 14:46 627K
20260414T12Z_MSC_RDPS_SpecificHumidity_IsbL-0800_RLatLon0.09_PT020H.grib2 2026-04-14 14:46 697K
20260414T12Z_MSC_RDPS_SpecificHumidity_IsbL-0850_RLatLon0.09_PT020H.grib2 2026-04-14 14:46 775K
20260414T12Z_MSC_RDPS_SpecificHumidity_IsbL-0875_RLatLon0.09_PT020H.grib2 2026-04-14 14:46 790K
20260414T12Z_MSC_RDPS_SpecificHumidity_IsbL-0900_RLatLon0.09_PT020H.grib2 2026-04-14 14:46 802K
20260414T12Z_MSC_RDPS_SpecificHumidity_IsbL-0925_RLatLon0.09_PT020H.grib2 2026-04-14 14:46 805K
20260414T12Z_MSC_RDPS_SpecificHumidity_IsbL-0950_RLatLon0.09_PT020H.grib2 2026-04-14 14:46 808K
20260414T12Z_MSC_RDPS_SpecificHumidity_IsbL-0970_RLatLon0.09_PT020H.grib2 2026-04-14 14:46 807K
20260414T12Z_MSC_RDPS_SpecificHumidity_IsbL-0985_RLatLon0.09_PT020H.grib2 2026-04-14 14:46 798K
20260414T12Z_MSC_RDPS_SpecificHumidity_IsbL-1000_RLatLon0.09_PT020H.grib2 2026-04-14 14:46 788K
20260414T12Z_MSC_RDPS_SpecificHumidity_IsbL-1015_RLatLon0.09_PT020H.grib2 2026-04-14 14:46 640K
20260414T12Z_MSC_RDPS_SpecificHumidity_Sfc_RLatLon0.09_PT020H.grib2 2026-04-14 14:46 278K
20260414T12Z_MSC_RDPS_StormRelativeHelicity_EtaL-10000_RLatLon0.09_PT020H.grib2 2026-04-14 14:46 1.1M
20260414T12Z_MSC_RDPS_StormSeverityIndex_EtaL-10000_RLatLon0.09_PT020H.grib2 2026-04-14 14:46 1.2M
20260414T12Z_MSC_RDPS_Thickness_IsbL-0850to0700_RLatLon0.09_PT020H.grib2 2026-04-14 14:46 175K
20260414T12Z_MSC_RDPS_Thickness_IsbL-1000to0500_RLatLon0.09_PT020H.grib2 2026-04-14 14:46 195K
20260414T12Z_MSC_RDPS_Thickness_IsbL-1000to0850_RLatLon0.09_PT020H.grib2 2026-04-14 14:46 185K
20260414T12Z_MSC_RDPS_TotalCloudCover_Sfc_RLatLon0.09_PT020H.grib2 2026-04-14 14:46 665K
20260414T12Z_MSC_RDPS_TotalTotalsIndex_Sfc_RLatLon0.09_PT020H.grib2 2026-04-14 14:46 2.4M
20260414T12Z_MSC_RDPS_UVIndex-ClearSky_Sfc_RLatLon0.09_PT020H.grib2 2026-04-14 14:46 71K
20260414T12Z_MSC_RDPS_UVIndex_Sfc_RLatLon0.09_PT020H.grib2 2026-04-14 14:46 127K
20260414T12Z_MSC_RDPS_UpwardLongwaveRadiationFlux_NTAtm_RLatLon0.09_PT020H.grib2 2026-04-14 14:46 475K
20260414T12Z_MSC_RDPS_UpwardShortwaveRadiationFlux_NTAtm_RLatLon0.09_PT020H.grib2 2026-04-14 14:46 116K
20260414T12Z_MSC_RDPS_VerticalVelocity_IsbL-0250_RLatLon0.09_PT020H.grib2 2026-04-14 14:46 545K
20260414T12Z_MSC_RDPS_VerticalVelocity_IsbL-0500_RLatLon0.09_PT020H.grib2 2026-04-14 14:46 568K
20260414T12Z_MSC_RDPS_VerticalVelocity_IsbL-0700_RLatLon0.09_PT020H.grib2 2026-04-14 14:46 612K
20260414T12Z_MSC_RDPS_VerticalVelocity_IsbL-0850_RLatLon0.09_PT020H.grib2 2026-04-14 14:46 687K
20260414T12Z_MSC_RDPS_VerticalWindShear_EtaL-6500_RLatLon0.09_PT020H.grib2 2026-04-14 14:46 1.2M
20260414T12Z_MSC_RDPS_WindChill_Sfc_RLatLon0.09_PT020H.grib2 2026-04-14 14:46 1.1M
20260414T12Z_MSC_RDPS_WindDir_AGL-10m_RLatLon0.09_PT020H.grib2 2026-04-14 14:46 963K
20260414T12Z_MSC_RDPS_WindDir_AGL-120m_RLatLon0.09_PT020H.grib2 2026-04-14 14:46 589K
20260414T12Z_MSC_RDPS_WindDir_AGL-40m_RLatLon0.09_PT020H.grib2 2026-04-14 14:46 624K
20260414T12Z_MSC_RDPS_WindDir_AGL-80m_RLatLon0.09_PT020H.grib2 2026-04-14 14:46 602K
20260414T12Z_MSC_RDPS_WindDir_IsbL-0001_RLatLon0.09_PT020H.grib2 2026-04-14 14:46 246K
20260414T12Z_MSC_RDPS_WindDir_IsbL-0005_RLatLon0.09_PT020H.grib2 2026-04-14 14:46 322K
20260414T12Z_MSC_RDPS_WindDir_IsbL-0010_RLatLon0.09_PT020H.grib2 2026-04-14 14:46 350K
20260414T12Z_MSC_RDPS_WindDir_IsbL-0020_RLatLon0.09_PT020H.grib2 2026-04-14 14:46 362K
20260414T12Z_MSC_RDPS_WindDir_IsbL-0030_RLatLon0.09_PT020H.grib2 2026-04-14 14:46 373K
20260414T12Z_MSC_RDPS_WindDir_IsbL-0050_RLatLon0.09_PT020H.grib2 2026-04-14 14:46 398K
20260414T12Z_MSC_RDPS_WindDir_IsbL-0100_RLatLon0.09_PT020H.grib2 2026-04-14 14:46 379K
20260414T12Z_MSC_RDPS_WindDir_IsbL-0150_RLatLon0.09_PT020H.grib2 2026-04-14 14:46 375K
20260414T12Z_MSC_RDPS_WindDir_IsbL-0175_RLatLon0.09_PT020H.grib2 2026-04-14 14:46 398K
20260414T12Z_MSC_RDPS_WindDir_IsbL-0200_RLatLon0.09_PT020H.grib2 2026-04-14 14:46 415K
20260414T12Z_MSC_RDPS_WindDir_IsbL-0225_RLatLon0.09_PT020H.grib2 2026-04-14 14:46 424K
20260414T12Z_MSC_RDPS_WindDir_IsbL-0250_RLatLon0.09_PT020H.grib2 2026-04-14 14:46 433K
20260414T12Z_MSC_RDPS_WindDir_IsbL-0275_RLatLon0.09_PT020H.grib2 2026-04-14 14:46 458K
20260414T12Z_MSC_RDPS_WindDir_IsbL-0300_RLatLon0.09_PT020H.grib2 2026-04-14 14:46 462K
20260414T12Z_MSC_RDPS_WindDir_IsbL-0350_RLatLon0.09_PT020H.grib2 2026-04-14 14:46 492K
20260414T12Z_MSC_RDPS_WindDir_IsbL-0400_RLatLon0.09_PT020H.grib2 2026-04-14 14:46 514K
20260414T12Z_MSC_RDPS_WindDir_IsbL-0450_RLatLon0.09_PT020H.grib2 2026-04-14 14:46 536K
20260414T12Z_MSC_RDPS_WindDir_IsbL-0500_RLatLon0.09_PT020H.grib2 2026-04-14 14:46 555K
20260414T12Z_MSC_RDPS_WindDir_IsbL-0550_RLatLon0.09_PT020H.grib2 2026-04-14 14:46 574K
20260414T12Z_MSC_RDPS_WindDir_IsbL-0600_RLatLon0.09_PT020H.grib2 2026-04-14 14:46 594K
20260414T12Z_MSC_RDPS_WindDir_IsbL-0650_RLatLon0.09_PT020H.grib2 2026-04-14 14:46 637K
20260414T12Z_MSC_RDPS_WindDir_IsbL-0700_RLatLon0.09_PT020H.grib2 2026-04-14 14:46 679K
20260414T12Z_MSC_RDPS_WindDir_IsbL-0750_RLatLon0.09_PT020H.grib2 2026-04-14 14:46 715K
20260414T12Z_MSC_RDPS_WindDir_IsbL-0800_RLatLon0.09_PT020H.grib2 2026-04-14 14:46 770K
20260414T12Z_MSC_RDPS_WindDir_IsbL-0850_RLatLon0.09_PT020H.grib2 2026-04-14 14:46 829K
20260414T12Z_MSC_RDPS_WindDir_IsbL-0875_RLatLon0.09_PT020H.grib2 2026-04-14 14:46 851K
20260414T12Z_MSC_RDPS_WindDir_IsbL-0900_RLatLon0.09_PT020H.grib2 2026-04-14 14:46 872K
20260414T12Z_MSC_RDPS_WindDir_IsbL-0925_RLatLon0.09_PT020H.grib2 2026-04-14 14:46 887K
20260414T12Z_MSC_RDPS_WindDir_IsbL-0950_RLatLon0.09_PT020H.grib2 2026-04-14 14:46 895K
20260414T12Z_MSC_RDPS_WindDir_IsbL-0970_RLatLon0.09_PT020H.grib2 2026-04-14 14:46 906K
20260414T12Z_MSC_RDPS_WindDir_IsbL-0985_RLatLon0.09_PT020H.grib2 2026-04-14 14:46 918K
20260414T12Z_MSC_RDPS_WindDir_IsbL-1000_RLatLon0.09_PT020H.grib2 2026-04-14 14:46 932K
20260414T12Z_MSC_RDPS_WindDir_IsbL-1015_RLatLon0.09_PT020H.grib2 2026-04-14 14:46 950K
20260414T12Z_MSC_RDPS_WindGust-Max_AGL-10m_RLatLon0.09_PT020H.grib2 2026-04-14 14:46 1.0M
20260414T12Z_MSC_RDPS_WindGust-Min_AGL-10m_RLatLon0.09_PT020H.grib2 2026-04-14 14:46 1.0M
20260414T12Z_MSC_RDPS_WindGust_AGL-10m_RLatLon0.09_PT020H.grib2 2026-04-14 14:46 1.0M
20260414T12Z_MSC_RDPS_WindSpeed_AGL-10m_RLatLon0.09_PT020H.grib2 2026-04-14 14:46 846K
20260414T12Z_MSC_RDPS_WindSpeed_AGL-120m_RLatLon0.09_PT020H.grib2 2026-04-14 14:46 544K
20260414T12Z_MSC_RDPS_WindSpeed_AGL-40m_RLatLon0.09_PT020H.grib2 2026-04-14 14:46 676K
20260414T12Z_MSC_RDPS_WindSpeed_AGL-80m_RLatLon0.09_PT020H.grib2 2026-04-14 14:46 674K
20260414T12Z_MSC_RDPS_WindSpeed_IsbL-0001_RLatLon0.09_PT020H.grib2 2026-04-14 14:46 295K
20260414T12Z_MSC_RDPS_WindSpeed_IsbL-0005_RLatLon0.09_PT020H.grib2 2026-04-14 14:46 307K
20260414T12Z_MSC_RDPS_WindSpeed_IsbL-0010_RLatLon0.09_PT020H.grib2 2026-04-14 14:46 346K
20260414T12Z_MSC_RDPS_WindSpeed_IsbL-0020_RLatLon0.09_PT020H.grib2 2026-04-14 14:46 326K
20260414T12Z_MSC_RDPS_WindSpeed_IsbL-0030_RLatLon0.09_PT020H.grib2 2026-04-14 14:46 332K
20260414T12Z_MSC_RDPS_WindSpeed_IsbL-0050_RLatLon0.09_PT020H.grib2 2026-04-14 14:46 371K
20260414T12Z_MSC_RDPS_WindSpeed_IsbL-0100_RLatLon0.09_PT020H.grib2 2026-04-14 14:46 487K
20260414T12Z_MSC_RDPS_WindSpeed_IsbL-0150_RLatLon0.09_PT020H.grib2 2026-04-14 14:46 370K
20260414T12Z_MSC_RDPS_WindSpeed_IsbL-0175_RLatLon0.09_PT020H.grib2 2026-04-14 14:46 417K
20260414T12Z_MSC_RDPS_WindSpeed_IsbL-0200_RLatLon0.09_PT020H.grib2 2026-04-14 14:46 435K
20260414T12Z_MSC_RDPS_WindSpeed_IsbL-0225_RLatLon0.09_PT020H.grib2 2026-04-14 14:46 442K
20260414T12Z_MSC_RDPS_WindSpeed_IsbL-0250_RLatLon0.09_PT020H.grib2 2026-04-14 14:46 446K
20260414T12Z_MSC_RDPS_WindSpeed_IsbL-0275_RLatLon0.09_PT020H.grib2 2026-04-14 14:46 464K
20260414T12Z_MSC_RDPS_WindSpeed_IsbL-0300_RLatLon0.09_PT020H.grib2 2026-04-14 14:46 461K
20260414T12Z_MSC_RDPS_WindSpeed_IsbL-0350_RLatLon0.09_PT020H.grib2 2026-04-14 14:46 457K
20260414T12Z_MSC_RDPS_WindSpeed_IsbL-0400_RLatLon0.09_PT020H.grib2 2026-04-14 14:46 460K
20260414T12Z_MSC_RDPS_WindSpeed_IsbL-0450_RLatLon0.09_PT020H.grib2 2026-04-14 14:46 459K
20260414T12Z_MSC_RDPS_WindSpeed_IsbL-0500_RLatLon0.09_PT020H.grib2 2026-04-14 14:46 460K
20260414T12Z_MSC_RDPS_WindSpeed_IsbL-0550_RLatLon0.09_PT020H.grib2 2026-04-14 14:46 579K
20260414T12Z_MSC_RDPS_WindSpeed_IsbL-0600_RLatLon0.09_PT020H.grib2 2026-04-14 14:46 588K
20260414T12Z_MSC_RDPS_WindSpeed_IsbL-0650_RLatLon0.09_PT020H.grib2 2026-04-14 14:46 609K
20260414T12Z_MSC_RDPS_WindSpeed_IsbL-0700_RLatLon0.09_PT020H.grib2 2026-04-14 14:46 677K
20260414T12Z_MSC_RDPS_WindSpeed_IsbL-0750_RLatLon0.09_PT020H.grib2 2026-04-14 14:46 709K
20260414T12Z_MSC_RDPS_WindSpeed_IsbL-0800_RLatLon0.09_PT020H.grib2 2026-04-14 14:46 758K
20260414T12Z_MSC_RDPS_WindSpeed_IsbL-0850_RLatLon0.09_PT020H.grib2 2026-04-14 14:46 815K
20260414T12Z_MSC_RDPS_WindSpeed_IsbL-0875_RLatLon0.09_PT020H.grib2 2026-04-14 14:46 836K
20260414T12Z_MSC_RDPS_WindSpeed_IsbL-0900_RLatLon0.09_PT020H.grib2 2026-04-14 14:46 848K
20260414T12Z_MSC_RDPS_WindSpeed_IsbL-0925_RLatLon0.09_PT020H.grib2 2026-04-14 14:46 862K
20260414T12Z_MSC_RDPS_WindSpeed_IsbL-0950_RLatLon0.09_PT020H.grib2 2026-04-14 14:46 866K
20260414T12Z_MSC_RDPS_WindSpeed_IsbL-0970_RLatLon0.09_PT020H.grib2 2026-04-14 14:46 866K
20260414T12Z_MSC_RDPS_WindSpeed_IsbL-0985_RLatLon0.09_PT020H.grib2 2026-04-14 14:46 860K
20260414T12Z_MSC_RDPS_WindSpeed_IsbL-1000_RLatLon0.09_PT020H.grib2 2026-04-14 14:46 853K
20260414T12Z_MSC_RDPS_WindSpeed_IsbL-1015_RLatLon0.09_PT020H.grib2 2026-04-14 14:46 844K
20260414T12Z_MSC_RDPS_WindU_AGL-10m_RLatLon0.09_PT020H.grib2 2026-04-14 14:46 434K
20260414T12Z_MSC_RDPS_WindU_AGL-120m_RLatLon0.09_PT020H.grib2 2026-04-14 14:46 539K
20260414T12Z_MSC_RDPS_WindU_AGL-40m_RLatLon0.09_PT020H.grib2 2026-04-14 14:46 542K
20260414T12Z_MSC_RDPS_WindU_AGL-80m_RLatLon0.09_PT020H.grib2 2026-04-14 14:46 540K
20260414T12Z_MSC_RDPS_WindU_IsbL-0001_RLatLon0.09_PT020H.grib2 2026-04-14 14:46 264K
20260414T12Z_MSC_RDPS_WindU_IsbL-0005_RLatLon0.09_PT020H.grib2 2026-04-14 14:46 329K
20260414T12Z_MSC_RDPS_WindU_IsbL-0010_RLatLon0.09_PT020H.grib2 2026-04-14 14:46 310K
20260414T12Z_MSC_RDPS_WindU_IsbL-0020_RLatLon0.09_PT020H.grib2 2026-04-14 14:46 328K
20260414T12Z_MSC_RDPS_WindU_IsbL-0030_RLatLon0.09_PT020H.grib2 2026-04-14 14:46 333K
20260414T12Z_MSC_RDPS_WindU_IsbL-0050_RLatLon0.09_PT020H.grib2 2026-04-14 14:46 364K
20260414T12Z_MSC_RDPS_WindU_IsbL-0100_RLatLon0.09_PT020H.grib2 2026-04-14 14:46 344K
20260414T12Z_MSC_RDPS_WindU_IsbL-0150_RLatLon0.09_PT020H.grib2 2026-04-14 14:46 389K
20260414T12Z_MSC_RDPS_WindU_IsbL-0175_RLatLon0.09_PT020H.grib2 2026-04-14 14:46 412K
20260414T12Z_MSC_RDPS_WindU_IsbL-0200_RLatLon0.09_PT020H.grib2 2026-04-14 14:46 428K
20260414T12Z_MSC_RDPS_WindU_IsbL-0225_RLatLon0.09_PT020H.grib2 2026-04-14 14:46 336K
20260414T12Z_MSC_RDPS_WindU_IsbL-0250_RLatLon0.09_PT020H.grib2 2026-04-14 14:46 340K
20260414T12Z_MSC_RDPS_WindU_IsbL-0275_RLatLon0.09_PT020H.grib2 2026-04-14 14:46 355K
20260414T12Z_MSC_RDPS_WindU_IsbL-0300_RLatLon0.09_PT020H.grib2 2026-04-14 14:46 351K
20260414T12Z_MSC_RDPS_WindU_IsbL-0350_RLatLon0.09_PT020H.grib2 2026-04-14 14:46 360K
20260414T12Z_MSC_RDPS_WindU_IsbL-0400_RLatLon0.09_PT020H.grib2 2026-04-14 14:46 466K
20260414T12Z_MSC_RDPS_WindU_IsbL-0450_RLatLon0.09_PT020H.grib2 2026-04-14 14:46 465K
20260414T12Z_MSC_RDPS_WindU_IsbL-0500_RLatLon0.09_PT020H.grib2 2026-04-14 14:46 467K
20260414T12Z_MSC_RDPS_WindU_IsbL-0550_RLatLon0.09_PT020H.grib2 2026-04-14 14:46 469K
20260414T12Z_MSC_RDPS_WindU_IsbL-0600_RLatLon0.09_PT020H.grib2 2026-04-14 14:46 478K
20260414T12Z_MSC_RDPS_WindU_IsbL-0650_RLatLon0.09_PT020H.grib2 2026-04-14 14:46 480K
20260414T12Z_MSC_RDPS_WindU_IsbL-0700_RLatLon0.09_PT020H.grib2 2026-04-14 14:46 503K
20260414T12Z_MSC_RDPS_WindU_IsbL-0750_RLatLon0.09_PT020H.grib2 2026-04-14 14:46 531K
20260414T12Z_MSC_RDPS_WindU_IsbL-0800_RLatLon0.09_PT020H.grib2 2026-04-14 14:46 573K
20260414T12Z_MSC_RDPS_WindU_IsbL-0850_RLatLon0.09_PT020H.grib2 2026-04-14 14:46 623K
20260414T12Z_MSC_RDPS_WindU_IsbL-0875_RLatLon0.09_PT020H.grib2 2026-04-14 14:46 640K
20260414T12Z_MSC_RDPS_WindU_IsbL-0900_RLatLon0.09_PT020H.grib2 2026-04-14 14:46 653K
20260414T12Z_MSC_RDPS_WindU_IsbL-0925_RLatLon0.09_PT020H.grib2 2026-04-14 14:46 661K
20260414T12Z_MSC_RDPS_WindU_IsbL-0950_RLatLon0.09_PT020H.grib2 2026-04-14 14:46 802K
20260414T12Z_MSC_RDPS_WindU_IsbL-0970_RLatLon0.09_PT020H.grib2 2026-04-14 14:46 800K
20260414T12Z_MSC_RDPS_WindU_IsbL-0985_RLatLon0.09_PT020H.grib2 2026-04-14 14:46 795K
20260414T12Z_MSC_RDPS_WindU_IsbL-1000_RLatLon0.09_PT020H.grib2 2026-04-14 14:46 835K
20260414T12Z_MSC_RDPS_WindU_IsbL-1015_RLatLon0.09_PT020H.grib2 2026-04-14 14:46 828K
20260414T12Z_MSC_RDPS_WindV_AGL-10m_RLatLon0.09_PT020H.grib2 2026-04-14 14:46 434K
20260414T12Z_MSC_RDPS_WindV_AGL-120m_RLatLon0.09_PT020H.grib2 2026-04-14 14:46 537K
20260414T12Z_MSC_RDPS_WindV_AGL-40m_RLatLon0.09_PT020H.grib2 2026-04-14 14:46 541K
20260414T12Z_MSC_RDPS_WindV_AGL-80m_RLatLon0.09_PT020H.grib2 2026-04-14 14:46 539K
20260414T12Z_MSC_RDPS_WindV_IsbL-0001_RLatLon0.09_PT020H.grib2 2026-04-14 14:46 209K
20260414T12Z_MSC_RDPS_WindV_IsbL-0005_RLatLon0.09_PT020H.grib2 2026-04-14 14:46 237K
20260414T12Z_MSC_RDPS_WindV_IsbL-0010_RLatLon0.09_PT020H.grib2 2026-04-14 14:46 309K
20260414T12Z_MSC_RDPS_WindV_IsbL-0020_RLatLon0.09_PT020H.grib2 2026-04-14 14:46 357K
20260414T12Z_MSC_RDPS_WindV_IsbL-0030_RLatLon0.09_PT020H.grib2 2026-04-14 14:46 361K
20260414T12Z_MSC_RDPS_WindV_IsbL-0050_RLatLon0.09_PT020H.grib2 2026-04-14 14:46 362K
20260414T12Z_MSC_RDPS_WindV_IsbL-0100_RLatLon0.09_PT020H.grib2 2026-04-14 14:46 340K
20260414T12Z_MSC_RDPS_WindV_IsbL-0150_RLatLon0.09_PT020H.grib2 2026-04-14 14:46 386K
20260414T12Z_MSC_RDPS_WindV_IsbL-0175_RLatLon0.09_PT020H.grib2 2026-04-14 14:46 411K
20260414T12Z_MSC_RDPS_WindV_IsbL-0200_RLatLon0.09_PT020H.grib2 2026-04-14 14:46 331K
20260414T12Z_MSC_RDPS_WindV_IsbL-0225_RLatLon0.09_PT020H.grib2 2026-04-14 14:46 433K
20260414T12Z_MSC_RDPS_WindV_IsbL-0250_RLatLon0.09_PT020H.grib2 2026-04-14 14:46 337K
20260414T12Z_MSC_RDPS_WindV_IsbL-0275_RLatLon0.09_PT020H.grib2 2026-04-14 14:46 352K
20260414T12Z_MSC_RDPS_WindV_IsbL-0300_RLatLon0.09_PT020H.grib2 2026-04-14 14:46 348K
20260414T12Z_MSC_RDPS_WindV_IsbL-0350_RLatLon0.09_PT020H.grib2 2026-04-14 14:46 357K
20260414T12Z_MSC_RDPS_WindV_IsbL-0400_RLatLon0.09_PT020H.grib2 2026-04-14 14:46 359K
20260414T12Z_MSC_RDPS_WindV_IsbL-0450_RLatLon0.09_PT020H.grib2 2026-04-14 14:46 462K
20260414T12Z_MSC_RDPS_WindV_IsbL-0500_RLatLon0.09_PT020H.grib2 2026-04-14 14:46 464K
20260414T12Z_MSC_RDPS_WindV_IsbL-0550_RLatLon0.09_PT020H.grib2 2026-04-14 14:46 465K
20260414T12Z_MSC_RDPS_WindV_IsbL-0600_RLatLon0.09_PT020H.grib2 2026-04-14 14:46 474K
20260414T12Z_MSC_RDPS_WindV_IsbL-0650_RLatLon0.09_PT020H.grib2 2026-04-14 14:46 476K
20260414T12Z_MSC_RDPS_WindV_IsbL-0700_RLatLon0.09_PT020H.grib2 2026-04-14 14:46 498K
20260414T12Z_MSC_RDPS_WindV_IsbL-0750_RLatLon0.09_PT020H.grib2 2026-04-14 14:46 525K
20260414T12Z_MSC_RDPS_WindV_IsbL-0800_RLatLon0.09_PT020H.grib2 2026-04-14 14:46 568K
20260414T12Z_MSC_RDPS_WindV_IsbL-0850_RLatLon0.09_PT020H.grib2 2026-04-14 14:46 618K
20260414T12Z_MSC_RDPS_WindV_IsbL-0875_RLatLon0.09_PT020H.grib2 2026-04-14 14:46 636K
20260414T12Z_MSC_RDPS_WindV_IsbL-0900_RLatLon0.09_PT020H.grib2 2026-04-14 14:46 650K
20260414T12Z_MSC_RDPS_WindV_IsbL-0925_RLatLon0.09_PT020H.grib2 2026-04-14 14:46 659K
20260414T12Z_MSC_RDPS_WindV_IsbL-0950_RLatLon0.09_PT020H.grib2 2026-04-14 14:46 660K
20260414T12Z_MSC_RDPS_WindV_IsbL-0970_RLatLon0.09_PT020H.grib2 2026-04-14 14:46 800K
20260414T12Z_MSC_RDPS_WindV_IsbL-0985_RLatLon0.09_PT020H.grib2 2026-04-14 14:46 796K
20260414T12Z_MSC_RDPS_WindV_IsbL-1000_RLatLon0.09_PT020H.grib2 2026-04-14 14:46 837K
20260414T12Z_MSC_RDPS_WindV_IsbL-1015_RLatLon0.09_PT020H.grib2 2026-04-14 14:46 829K